DB0TGO-14 Weather Reports


Display with metric or nautical units.
time (UTC)temp
F
wind
direction
speed
MPH
gust
MPH
rain 1hr
in
rain 24hr
in
rain mn
in
humidity
%
barometer
mb
20260508153557 59 22 1.0 3.0 0.00 0.00 0.00 57 1020.8
20260508153415 59 45 1.0 3.0 0.00 0.00 0.00 58 1020.8
20260508153220 59 45 1.0 2.0 0.00 0.00 0.00 57 1020.8
20260508153025 58 45 1.0 2.0 0.00 0.00 0.00 58 1020.8
20260508152845 58 45 1.0 2.0 0.00 0.00 0.00 57 1020.8
20260508152647 58 45 1.0 2.0 0.00 0.00 0.00 59 1020.8
20260508152617 58 45 1.0 2.0 0.00 0.00 0.00 59 1020.8
20260508152511 58 45 1.0 2.0 0.00 0.00 0.00 58 1020.8
20260508152324 58 45 1.0 2.0 0.00 0.00 0.00 59 1020.8
20260508152147 58 45 2.0 2.0 0.00 0.00 0.00 59 1020.8
20260508151950 58 45 3.0 2.0 0.00 0.00 0.00 59 1020.8
20260508151802 58 45 3.0 6.0 0.00 0.00 0.00 58 1020.9
20260508151620 58 45 3.0 7.0 0.00 0.00 0.00 60 1020.8
20260508151435 58 68 3.0 7.0 0.00 0.00 0.00 59 1020.8
20260508151300 58 68 3.0 7.0 0.00 0.00 0.00 58 1020.8
20260508151107 58 68 2.0 6.0 0.00 0.00 0.00 58 1020.8
20260508150914 59 90 2.0 6.0 0.00 0.00 0.00 58 1020.9
20260508150730 59 22 2.0 4.0 0.00 0.00 0.00 58 1020.9
20260508150355 59 270 1.0 5.0 0.00 0.00 0.00 57 1020.9
20260508150201 59 68 1.0 5.0 0.00 0.00 0.00 58 1020.9
20260508150016 59 22 1.0 5.0 0.00 0.00 0.00 58 1020.8
20260508145835 59 22 1.0 5.0 0.00 0.00 0.00 57 1020.9
20260508145650 59 68 1.0 3.0 0.00 0.00 0.00 58 1020.9
20260508145505 59 22 1.0 2.0 0.00 0.00 0.00 57 1020.8
20260508145326 59 22 2.0 3.0 0.00 0.00 0.00 57 1020.9
20260508145319 59 22 2.0 3.0 0.00 0.00 0.00 57 1020.8
20260508145140 59 22 1.0 3.0 0.00 0.00 0.00 58 1020.9
20260508144950 59 22 1.0 5.0 0.00 0.00 0.00 57 1020.9
20260508144751 59 45 1.0 4.0 0.00 0.00 0.00 58 1020.9
20260508144555 59 45 2.0 4.0 0.00 0.00 0.00 57 1020.9
20260508144400 59 45 2.0 4.0 0.00 0.00 0.00 58 1021.0
20260508144210 59 68 2.0 5.0 0.00 0.00 0.00 58 1020.9
20260508144010 60 45 2.0 5.0 0.00 0.00 0.00 57 1020.9
20260508143810 60 22 2.0 5.0 0.00 0.00 0.00 57 1020.9
20260508143626 60 68 2.0 5.0 0.00 0.00 0.00 57 1020.9
20260508143524 60 338 2.0 5.0 0.00 0.00 0.00 57 1021.0
20260508143435 60 338 2.0 5.0 0.00 0.00 0.00 57 1020.9
20260508143255 60 45 2.0 3.0 0.00 0.00 0.00 54 1020.9
20260508143110 61 22 2.0 5.0 0.00 0.00 0.00 55 1020.9
20260508142920 61 22 2.0 5.0 0.00 0.00 0.00 55 1020.9
20260508142734 61 22 2.0 5.0 0.00 0.00 0.00 54 1020.9
20260508142545 61 22 1.0 5.0 0.00 0.00 0.00 54 1020.9
20260508142400 61 68 1.0 5.0 0.00 0.00 0.00 55 1021.0
20260508142205 61 68 1.0 5.0 0.00 0.00 0.00 53 1020.9
20260508142015 62 45 1.0 2.0 0.00 0.00 0.00 52 1020.9
20260508141830 62 45 1.0 3.0 0.00 0.00 0.00 52 1020.9
20260508141652 62 45 1.0 4.0 0.00 0.00 0.00 51 1020.9
20260508141515 62 292 1.0 5.0 0.00 0.00 0.00 51 1020.9
20260508141325 61 292 1.0 5.0 0.00 0.00 0.00 51 1020.9
20260508141135 61 292 1.0 5.0 0.00 0.00 0.00 49 1020.9
20260508140953 61 22 1.0 2.0 0.00 0.00 0.00 49 1020.9
20260508140800 61 22 2.0 3.0 0.00 0.00 0.00 50 1020.9
20260508140600 60 248 2.0 3.0 0.00 0.00 0.00 51 1020.9
20260508140410 60 68 2.0 5.0 0.00 0.00 0.00 53 1020.9
20260508140225 61 68 2.0 5.0 0.00 0.00 0.00 51 1020.9
20260508140132 61 68 2.0 5.0 0.00 0.00 0.00 52 1020.9
20260508140025 61 68 2.0 5.0 0.00 0.00 0.00 52 1020.9
20260508135840 61 90 2.0 4.0 0.00 0.00 0.00 51 1020.9
20260508135640 61 68 2.0 6.0 0.00 0.00 0.00 51 1021.0
20260508135500 61 45 2.0 6.0 0.00 0.00 0.00 51 1021.0
20260508135315 61 45 2.0 6.0 0.00 0.00 0.00 53 1021.0
20260508135140 61 90 2.0 5.0 0.00 0.00 0.00 52 1021.0
20260508135000 61 45 2.0 5.0 0.00 0.00 0.00 53 1021.0
20260508134820 61 90 2.0 5.0 0.00 0.00 0.00 51 1021.0
20260508134622 61 68 2.0 5.0 0.00 0.00 0.00 53 1021.0
20260508134447 62 45 1.0 5.0 0.00 0.00 0.00 52 1021.0
20260508134249 62 45 2.0 5.0 0.00 0.00 0.00 50 1021.1
20260508134053 61 68 1.0 2.0 0.00 0.00 0.00 51 1021.1
20260508133900 61 68 1.0 2.0 0.00 0.00 0.00 52 1021.0
20260508133713 60 68 2.0 3.0 0.00 0.00 0.00 52 1021.0
20260508133525 60 68 2.0 3.0 0.00 0.00 0.00 52 1021.0
20260508133340 60 68 3.0 5.0 0.00 0.00 0.00 51 1021.1
20260508133145 60 68 4.0 5.0 0.00 0.00 0.00 53 1021.1
20260508133044 60 68 4.0 5.0 0.00 0.00 0.00 53 1021.0
20260508132955 60 45 4.0 6.0 0.00 0.00 0.00 53 1021.0
20260508132800 61 68 4.0 8.0 0.00 0.00 0.00 55 1021.1
20260508132610 61 90 3.0 8.0 0.00 0.00 0.00 55 1021.1
20260508132427 62 90 2.0 8.0 0.00 0.00 0.00 52 1021.1
20260508132250 62 68 2.0 6.0 0.00 0.00 0.00 51 1021.2
20260508132110 63 68 2.0 6.0 0.00 0.00 0.00 52 1021.2
20260508131909 63 68 2.0 4.0 0.00 0.00 0.00 51 1021.2
20260508131720 63 68 2.0 4.0 0.00 0.00 0.00 51 1021.2
20260508131520 64 68 2.0 6.0 0.00 0.00 0.00 48 1021.2
20260508131344 64 45 1.0 3.0 0.00 0.00 0.00 49 1021.3
20260508131237 64 90 1.0 3.0 0.00 0.00 0.00 49 1021.2
20260508131207 64 90 1.0 3.0 0.00 0.00 0.00 49 1021.2
20260508131010 64 45 1.0 3.0 0.00 0.00 0.00 47 1021.3
20260508130825 64 45 1.0 3.0 0.00 0.00 0.00 48 1021.3
20260508130645 64 45 1.0 3.0 0.00 0.00 0.00 48 1021.3
20260508130505 63 45 1.0 2.0 0.00 0.00 0.00 50 1021.3
20260508130307 63 45 2.0 2.0 0.00 0.00 0.00 47 1021.3
20260508130110 63 45 2.0 4.0 0.00 0.00 0.00 47 1021.3
20260508125925 63 45 3.0 4.0 0.00 0.00 0.00 48 1021.3
20260508125745 63 45 3.0 10.0 0.00 0.00 0.00 48 1021.3
20260508125602 63 45 4.0 10.0 0.00 0.00 0.00 50 1021.3
20260508125415 62 45 3.0 10.0 0.00 0.00 0.00 52 1021.4
20260508125235 62 22 2.0 7.0 0.00 0.00 0.00 48 1021.4
20260508125045 62 68 2.0 5.0 0.00 0.00 0.00 50 1021.4
20260508124855 61 292 3.0 5.0 0.00 0.00 0.00 52 1021.4
20260508124715 61 22 3.0 5.0 0.00 0.00 0.00 51 1021.4
20260508124517 60 202 4.0 8.0 0.00 0.00 0.00 50 1021.4
20260508124327 60 202 4.0 10.0 0.00 0.00 0.00 52 1021.4
20260508124135 59 180 4.0 10.0 0.00 0.00 0.00 54 1021.4
20260508123944 59 202 4.0 10.0 0.00 0.00 0.00 54 1021.4
20260508123906 59 270 4.0 10.0 0.00 0.00 0.00 54 1021.4
20260508123807 59 225 4.0 9.0 0.00 0.00 0.00 53 1021.4
20260508123627 59 248 4.0 10.0 0.00 0.00 0.00 55 1021.5
20260508123445 59 225 4.0 10.0 0.00 0.00 0.00 54 1021.5
20260508123305 59 248 4.0 10.0 0.00 0.00 0.00 57 1021.6
20260508123127 59 225 3.0 10.0 0.00 0.00 0.00 55 1021.5
20260508122950 59 180 3.0 10.0 0.00 0.00 0.00 55 1021.4
20260508122755 58 180 3.0 5.0 0.00 0.00 0.00 55 1021.4
20260508122610 58 225 3.0 5.0 0.00 0.00 0.00 56 1021.5
20260508122420 58 225 3.0 6.0 0.00 0.00 0.00 53 1021.5
20260508122225 57 202 3.0 6.0 0.00 0.00 0.00 56 1021.6
20260508122153 57 202 3.0 6.0 0.00 0.00 0.00 56 1021.5
20260508122025 57 180 4.0 6.0 0.00 0.00 0.00 56 1021.6
20260508121827 57 180 4.0 7.0 0.00 0.00 0.00 58 1021.6
20260508121645 57 202 3.0 6.0 0.00 0.00 0.00 58 1021.6
20260508121455 57 158 4.0 6.0 0.00 0.00 0.00 57 1021.5
20260508121307 57 202 3.0 6.0 0.00 0.00 0.00 58 1021.6
20260508121120 57 180 3.0 6.0 0.00 0.00 0.00 58 1021.6
20260508120930 57 180 2.0 7.0 0.00 0.00 0.00 58 1021.6
20260508120735 57 180 2.0 7.0 0.00 0.00 0.00 59 1021.6
20260508120540 57 180 2.0 6.0 0.00 0.00 0.00 58 1021.5
20260508120417 57 135 1.0 6.0 0.00 0.00 0.00 59 1021.6
20260508120355 56 135 2.0 6.0 0.00 0.00 0.00 59 1021.6
20260508120200 56 180 1.0 6.0 0.00 0.00 0.00 60 1021.6
20260508120003 56 135 2.0 6.0 0.00 0.00 0.00 60 1021.6
20260508115825 56 112 2.0 4.0 0.00 0.00 0.00 60 1021.6
20260508115630 56 180 2.0 4.0 0.00 0.00 0.00 61 1021.5
20260508115435 57 90 2.0 6.0 0.00 0.00 0.00 60 1021.5
20260508115255 57 68 3.0 6.0 0.00 0.00 0.00 61 1021.5
20260508115111 57 68 2.0 6.0 0.00 0.00 0.00 61 1021.6
20260508114915 57 202 2.0 3.0 0.00 0.00 0.00 59 1021.5
20260508114806 56 112 2.0 5.0 0.00 0.00 0.00 60 1021.6
20260508114720 56 180 2.0 6.0 0.00 0.00 0.00 60 1021.5
20260508114535 56 45 2.0 6.0 0.00 0.00 0.00 60 1021.6
20260508114355 56 45 2.0 6.0 0.00 0.00 0.00 60 1021.6
20260508114207 56 180 2.0 5.0 0.00 0.00 0.00 62 1021.6
20260508114025 56 180 2.0 5.0 0.00 0.00 0.00 61 1021.7
20260508113835 56 112 2.0 3.0 0.00 0.00 0.00 63 1021.7
20260508113640 56 90 3.0 6.0 0.00 0.00 0.00 64 1021.7
20260508113500 56 90 4.0 6.0 0.00 0.00 0.00 63 1021.6
20260508113320 56 68 4.0 6.0 0.00 0.00 0.00 63 1021.6
20260508113251 56 68 4.0 7.0 0.00 0.00 0.00 62 1021.7
20260508113130 57 68 4.0 7.0 0.00 0.00 0.00 62 1021.7
20260508112940 57 68 4.0 9.0 0.00 0.00 0.00 63 1021.7
20260508112804 57 68 4.0 9.0 0.00 0.00 0.00 63 1021.6
20260508112620 57 45 2.0 6.0 0.00 0.00 0.00 60 1021.7
20260508112419 57 68 2.0 5.0 0.00 0.00 0.00 59 1021.7
20260508112220 58 45 2.0 5.0 0.00 0.00 0.00 61 1021.7
20260508112030 58 68 2.0 6.0 0.00 0.00 0.00 60 1021.7
20260508111831 58 45 1.0 6.0 0.00 0.00 0.00 59 1021.7
20260508111654 58 338 1.0 6.0 0.00 0.00 0.00 61 1021.8
20260508111510 58 292 1.0 6.0 0.00 0.00 0.00 61 1021.7
20260508111410 57 90 1.0 4.0 0.00 0.00 0.00 60 1021.7
20260508111315 57 90 1.0 4.0 0.00 0.00 0.00 59 1021.7
20260508111115 57 68 1.0 4.0 0.00 0.00 0.00 59 1021.7
20260508110938 57 68 1.0 4.0 0.00 0.00 0.00 59 1021.6
20260508110740 57 22 1.0 4.0 0.00 0.00 0.00 59 1021.7
20260508110545 56 90 2.0 5.0 0.00 0.00 0.00 59 1021.7
20260508110345 57 90 2.0 5.0 0.00 0.00 0.00 60 1021.6
20260508110150 57 90 3.0 6.0 0.00 0.00 0.00 61 1021.7
20260508110010 57 68 2.0 6.0 0.00 0.00 0.00 62 1021.6
20260508105815 57 45 2.0 6.0 0.00 0.00 0.00 60 1021.7
20260508105811 57 45 2.0 6.0 0.00 0.00 0.00 60 1021.7
20260508105615 57 68 2.0 5.0 0.00 0.00 0.00 60 1021.6
20260508105413 57 90 1.0 4.0 0.00 0.00 0.00 58 1021.7
20260508105215 57 0 2.0 2.0 0.00 0.00 0.00 57 1021.7
20260508105018 57 0 2.0 6.0 0.00 0.00 0.00 59 1021.6
20260508104817 56 0 2.0 6.0 0.00 0.00 0.00 58 1021.7
20260508104625 56 22 2.0 6.0 0.00 0.00 0.00 60 1021.6
20260508104445 56 45 2.0 5.0 0.00 0.00 0.00 58 1021.7
20260508104254 56 68 3.0 6.0 0.00 0.00 0.00 59 1021.6
20260508104142 56 22 4.0 6.0 0.00 0.00 0.00 60 1021.6
20260508104105 57 22 4.0 6.0 0.00 0.00 0.00 60 1021.7
20260508103921 57 22 4.0 6.0 0.00 0.00 0.00 60 1021.7
20260508103734 57 22 4.0 9.0 0.00 0.00 0.00 61 1021.7
20260508103547 57 68 4.0 9.0 0.00 0.00 0.00 60 1021.6
20260508103355 57 68 3.0 9.0 0.00 0.00 0.00 61 1021.6
20260508103155 57 68 2.0 6.0 0.00 0.00 0.00 58 1021.6
20260508103005 57 22 2.0 2.0 0.00 0.00 0.00 58 1021.5
20260508102819 57 22 2.0 3.0 0.00 0.00 0.00 58 1021.6
20260508102635 57 22 2.0 6.0 0.00 0.00 0.00 59 1021.5
20260508102453 57 68 3.0 9.0 0.00 0.00 0.00 58 1021.6
20260508102348 57 45 3.0 9.0 0.00 0.00 0.00 59 1021.6
20260508102317 57 45 3.0 9.0 0.00 0.00 0.00 59 1021.6
20260508102130 57 68 3.0 9.0 0.00 0.00 0.00 60 1021.6
20260508101949 57 90 2.0 6.0 0.00 0.00 0.00 59 1021.6
20260508101815 57 90 2.0 6.0 0.00 0.00 0.00 59 1021.6
20260508101630 57 90 2.0 7.0 0.00 0.00 0.00 60 1021.6
20260508101438 57 90 3.0 7.0 0.00 0.00 0.00 60 1021.6
20260508101255 57 90 3.0 7.0 0.00 0.00 0.00 59 1021.6
20260508101115 57 68 2.0 4.0 0.00 0.00 0.00 58 1021.6
20260508100931 57 68 3.0 8.0 0.00 0.00 0.00 60 1021.6
20260508100751 57 45 3.0 8.0 0.00 0.00 0.00 61 1021.5
20260508100710 57 45 4.0 8.0 0.00 0.00 0.00 60 1021.5
20260508100605 57 45 3.0 7.0 0.00 0.00 0.00 58 1021.5
20260508100411 57 68 3.0 7.0 0.00 0.00 0.00 59 1021.6
20260508100220 57 68 2.0 7.0 0.00 0.00 0.00 61 1021.6
20260508100040 57 68 2.0 7.0 0.00 0.00 0.00 60 1021.7
20260508095845 57 22 2.0 5.0 0.00 0.00 0.00 58 1021.7
20260508095650 56 22 2.0 5.0 0.00 0.00 0.00 59 1021.7
20260508095505 56 22 2.0 5.0 0.00 0.00 0.00 59 1021.7
20260508095307 56 45 3.0 5.0 0.00 0.00 0.00 61 1021.7
20260508095110 56 68 3.0 5.0 0.00 0.00 0.00 61 1021.6
20260508094911 56 90 3.0 6.0 0.00 0.00 0.00 62 1021.7
20260508094725 57 68 3.0 7.0 0.00 0.00 0.00 62 1021.7
20260508094533 57 90 3.0 7.0 0.00 0.00 0.00 62 1021.7
20260508094355 57 90 3.0 10.0 0.00 0.00 0.00 61 1021.6
20260508094200 57 68 3.0 10.0 0.00 0.00 0.00 62 1021.6
20260508094020 58 22 3.0 10.0 0.00 0.00 0.00 60 1021.7
20260508093822 58 45 2.0 10.0 0.00 0.00 0.00 59 1021.6
20260508093647 58 90 2.0 6.0 0.00 0.00 0.00 58 1021.6
20260508093510 58 90 2.0 6.0 0.00 0.00 0.00 57 1021.7
20260508093311 58 90 2.0 6.0 0.00 0.00 0.00 58 1021.6
20260508093142 58 45 2.0 6.0 0.00 0.00 0.00 56 1021.6
20260508093003 58 22 2.0 6.0 0.00 0.00 0.00 59 1021.7
20260508092815 58 22 1.0 6.0 0.00 0.00 0.00 58 1021.6
20260508092615 59 22 1.0 5.0 0.00 0.00 0.00 57 1021.7
20260508092415 59 292 1.0 2.0 0.00 0.00 0.00 57 1021.6
20260508092237 59 270 2.0 4.0 0.00 0.00 0.00 56 1021.6
20260508092045 59 270 2.0 6.0 0.00 0.00 0.00 54 1021.6
20260508091845 59 338 2.0 6.0 0.00 0.00 0.00 55 1021.6
20260508091645 59 22 2.0 6.0 0.00 0.00 0.00 52 1021.6
20260508091521 59 68 2.0 3.0 0.00 0.00 0.00 53 1021.6
20260508091500 59 68 2.0 3.0 0.00 0.00 0.00 53 1021.6
20260508091320 58 90 1.0 3.0 0.00 0.00 0.00 56 1021.6
20260508091125 58 90 1.0 3.0 0.00 0.00 0.00 56 1021.6
20260508090925 58 68 1.0 4.0 0.00 0.00 0.00 53 1021.7
20260508090740 58 22 1.0 6.0 0.00 0.00 0.00 55 1021.6
20260508090555 58 22 2.0 6.0 0.00 0.00 0.00 55 1021.6
20260508090355 58 22 2.0 5.0 0.00 0.00 0.00 55 1021.6
20260508090200 58 68 2.0 4.0 0.00 0.00 0.00 56 1021.6
20260508085952 58 68 2.0 6.0 0.00 0.00 0.00 56 1021.6
20260508085810 58 68 2.0 6.0 0.00 0.00 0.00 57 1021.6
20260508085612 58 68 2.0 4.0 0.00 0.00 0.00 55 1021.6
20260508085425 58 45 2.0 6.0 0.00 0.00 0.00 54 1021.5
20260508085230 57 22 3.0 6.0 0.00 0.00 0.00 56 1021.5
20260508085055 57 22 2.0 6.0 0.00 0.00 0.00 58 1021.5
20260508084900 57 68 2.0 5.0 0.00 0.00 0.00 58 1021.4
20260508084707 57 45 2.0 5.0 0.00 0.00 0.00 56 1021.5
20260508084510 56 22 2.0 4.0 0.00 0.00 0.00 57 1021.5
20260508084325 56 22 2.0 7.0 0.00 0.00 0.00 57 1021.5
20260508084153 56 22 3.0 7.0 0.00 0.00 0.00 59 1021.5
20260508084138 56 22 3.0 7.0 0.00 0.00 0.00 58 1021.5
20260508083943 56 22 3.0 6.0 0.00 0.00 0.00 59 1021.5
20260508083745 56 68 3.0 5.0 0.00 0.00 0.00 61 1021.5
20260508083558 56 68 4.0 7.0 0.00 0.00 0.00 60 1021.5
20260508083408 56 22 4.0 8.0 0.00 0.00 0.00 62 1021.6
20260508083230 56 68 3.0 8.0 0.00 0.00 0.00 63 1021.5
20260508083040 56 90 3.0 6.0 0.00 0.00 0.00 61 1021.6
20260508082900 56 112 3.0 6.0 0.00 0.00 0.00 61 1021.4
20260508082710 56 68 3.0 5.0 0.00 0.00 0.00 60 1021.5
20260508082530 57 68 2.0 5.0 0.00 0.00 0.00 59 1021.5
20260508082350 57 90 2.0 9.0 0.00 0.00 0.00 58 1021.5
20260508082311 57 90 2.0 9.0 0.00 0.00 0.00 60 1021.5
20260508082154 57 90 2.0 9.0 0.00 0.00 0.00 62 1021.4
20260508082017 57 45 3.0 8.0 0.00 0.00 0.00 61 1021.5
20260508081820 57 68 2.0 5.0 0.00 0.00 0.00 61 1021.4
20260508081620 57 45 2.0 3.0 0.00 0.00 0.00 61 1021.5
20260508081433 56 45 3.0 6.0 0.00 0.00 0.00 61 1021.4
20260508081250 56 22 3.0 6.0 0.00 0.00 0.00 61 1021.4
20260508081107 56 45 4.0 6.0 0.00 0.00 0.00 63 1021.4
20260508080915 56 90 4.0 8.0 0.00 0.00 0.00 63 1021.3
20260508080730 56 68 4.0 8.0 0.00 0.00 0.00 63 1021.4
20260508080545 56 68 4.0 8.0 0.00 0.00 0.00 61 1021.4
20260508080425 56 45 3.0 7.0 0.00 0.00 0.00 63 1021.4
20260508080354 56 68 3.0 7.0 0.00 0.00 0.00 64 1021.3
20260508080155 56 45 3.0 7.0 0.00 0.00 0.00 62 1021.3
20260508080003 56 45 3.0 7.0 0.00 0.00 0.00 64 1021.3
20260508075825 56 90 3.0 7.0 0.00 0.00 0.00 63 1021.3
20260508075645 55 68 4.0 7.0 0.00 0.00 0.00 65 1021.4
20260508075447 55 338 4.0 7.0 0.00 0.00 0.00 64 1021.3
20260508075307 55 68 4.0 8.0 0.00 0.00 0.00 64 1021.3
20260508075120 55 45 4.0 8.0 0.00 0.00 0.00 65 1021.4
20260508074930 56 22 3.0 8.0 0.00 0.00 0.00 65 1021.3
20260508074738 56 68 3.0 6.0 0.00 0.00 0.00 65 1021.4
20260508074613 56 45 3.0 6.0 0.00 0.00 0.00 67 1021.3
20260508074545 56 45 3.0 6.0 0.00 0.00 0.00 67 1021.4
20260508074347 56 90 3.0 9.0 0.00 0.00 0.00 66 1021.4
20260508074209 56 68 3.0 9.0 0.00 0.00 0.00 68 1021.2
20260508074027 56 68 3.0 9.0 0.00 0.00 0.00 68 1021.3
20260508073845 56 90 3.0 8.0 0.00 0.00 0.00 67 1021.3
20260508073705 56 68 3.0 8.0 0.00 0.00 0.00 66 1021.3
20260508073515 55 68 3.0 8.0 0.00 0.00 0.00 67 1021.3
20260508073320 55 45 3.0 8.0 0.00 0.00 0.00 67 1021.3
20260508073135 55 45 3.0 8.0 0.00 0.00 0.00 66 1021.2
20260508072940 55 68 4.0 8.0 0.00 0.00 0.00 68 1021.2
20260508072831 55 90 4.0 8.0 0.00 0.00 0.00 68 1021.3
20260508072803 55 90 4.0 8.0 0.00 0.00 0.00 67 1021.3
20260508072623 55 45 5.0 8.0 0.00 0.00 0.00 67 1021.3
20260508072433 55 22 5.0 9.0 0.00 0.00 0.00 70 1021.3
20260508072235 55 68 5.0 9.0 0.00 0.00 0.00 67 1021.2
20260508072047 55 68 5.0 9.0 0.00 0.00 0.00 69 1021.2
20260508071902 55 68 4.0 7.0 0.00 0.00 0.00 70 1021.2
20260508071725 56 45 4.0 7.0 0.00 0.00 0.00 68 1021.2
20260508071534 56 45 3.0 6.0 0.00 0.00 0.00 71 1021.2
20260508071345 56 45 3.0 6.0 0.00 0.00 0.00 68 1021.2
20260508071205 56 22 3.0 6.0 0.00 0.00 0.00 67 1021.2
20260508071015 56 90 3.0 7.0 0.00 0.00 0.00 68 1021.2
20260508070945 56 22 3.0 7.0 0.00 0.00 0.00 68 1021.1
20260508070837 56 68 3.0 7.0 0.00 0.00 0.00 68 1021.1
20260508070639 55 22 4.0 7.0 0.00 0.00 0.00 67 1021.2
20260508070500 54 22 3.0 6.0 0.00 0.00 0.00 66 1021.2
20260508070300 54 45 3.0 5.0 0.00 0.00 0.00 67 1021.2
20260508070110 53 292 3.0 6.0 0.00 0.00 0.00 70 1021.2
20260508065928 53 292 3.0 6.0 0.00 0.00 0.00 70 1021.2
20260508065740 52 22 3.0 6.0 0.00 0.00 0.00 71 1021.0
20260508065540 52 45 3.0 6.0 0.00 0.00 0.00 73 1021.1
20260508065400 51 68 2.0 5.0 0.00 0.00 0.00 75 1021.1
20260508065209 51 22 2.0 5.0 0.00 0.00 0.00 75 1021.2
20260508065110 51 22 2.0 5.0 0.00 0.00 0.00 76 1021.2
20260508065018 51 45 2.0 4.0 0.00 0.00 0.00 77 1021.1
20260508064837 51 45 2.0 6.0 0.00 0.00 0.00 77 1021.2
20260508064700 51 0 3.0 6.0 0.00 0.00 0.00 78 1021.2
20260508064500 50 22 3.0 6.0 0.00 0.00 0.00 78 1021.1
20260508064325 50 22 3.0 5.0 0.00 0.00 0.00 78 1021.1
20260508064135 50 68 3.0 5.0 0.00 0.00 0.00 79 1021.1
20260508063938 50 22 3.0 6.0 0.00 0.00 0.00 79 1021.1
20260508063753 50 22 3.0 6.0 0.00 0.00 0.00 79 1021.0
20260508063610 50 22 2.0 6.0 0.00 0.00 0.00 79 1021.0
20260508063458 50 45 2.0 5.0 0.00 0.00 0.00 80 1021.0
20260508063427 50 45 2.0 5.0 0.00 0.00 0.00 80 1021.0
20260508063250 50 45 2.0 5.0 0.00 0.00 0.00 79 1021.0
20260508063112 49 45 2.0 5.0 0.00 0.00 0.00 80 1021.0
20260508062930 49 68 2.0 5.0 0.00 0.00 0.00 80 1021.0
20260508062740 49 45 2.0 5.0 0.00 0.00 0.00 82 1021.0
20260508062545 49 45 3.0 5.0 0.00 0.00 0.00 82 1021.0
20260508062345 49 68 3.0 5.0 0.00 0.00 0.00 81 1020.9
20260508062205 49 90 3.0 6.0 0.00 0.00 0.00 81 1020.8
20260508062006 49 45 3.0 6.0 0.00 0.00 0.00 82 1020.9
20260508061820 49 22 3.0 6.0 0.00 0.00 0.00 82 1020.9
20260508061620 48 45 2.0 5.0 0.00 0.00 0.00 83 1020.8
20260508061420 48 22 2.0 5.0 0.00 0.00 0.00 83 1020.9
20260508061220 48 0 2.0 5.0 0.00 0.00 0.00 82 1020.8
20260508061030 48 68 2.0 5.0 0.00 0.00 0.00 83 1020.9
20260508060850 48 45 2.0 5.0 0.00 0.00 0.00 82 1020.8
20260508060703 48 45 2.0 4.0 0.00 0.00 0.00 82 1020.9
20260508060510 48 22 1.0 3.0 0.00 0.00 0.00 84 1020.8
20260508060315 48 22 1.0 5.0 0.00 0.00 0.00 84 1020.8
20260508060119 48 22 2.0 5.0 0.00 0.00 0.00 84 1020.9
20260508060022 48 45 1.0 5.0 0.00 0.00 0.00 84 1020.8
20260508055935 47 45 1.0 5.0 0.00 0.00 0.00 83 1020.8
20260508055734 47 90 1.0 5.0 0.00 0.00 0.00 84 1020.8
20260508055535 47 90 2.0 5.0 0.00 0.00 0.00 85 1020.8
20260508055335 47 45 2.0 5.0 0.00 0.00 0.00 84 1020.7
20260508055155 47 45 3.0 5.0 0.00 0.00 0.00 85 1020.8
20260508055016 47 22 3.0 5.0 0.00 0.00 0.00 86 1020.9
20260508054820 47 0 3.0 6.0 0.00 0.00 0.00 86 1020.8
20260508054617 47 68 3.0 8.0 0.00 0.00 0.00 85 1020.8
20260508054435 47 22 3.0 8.0 0.00 0.00 0.00 86 1020.7
20260508054245 47 22 3.0 8.0 0.00 0.00 0.00 86 1020.6
20260508054232 47 22 4.0 8.0 0.00 0.00 0.00 86 1020.7
20260508054100 47 22 3.0 6.0 0.00 0.00 0.00 86 1020.7
20260508053920 47 45 3.0 6.0 0.00 0.00 0.00 86 1020.6
20260508053725 47 45 3.0 5.0 0.00 0.00 0.00 86 1020.7
20260508053540 46 0 3.0 5.0 0.00 0.00 0.00 86 1020.8
20260508053400 46 45 3.0 5.0 0.00 0.00 0.00 86 1020.8
20260508053210 46 45 3.0 5.0 0.00 0.00 0.00 86 1020.7
20260508053033 46 45 3.0 5.0 0.00 0.00 0.00 86 1020.7
20260508052855 46 45 3.0 5.0 0.00 0.00 0.00 86 1020.7
20260508052700 46 68 3.0 5.0 0.00 0.00 0.00 86 1020.8
20260508052532 46 45 3.0 6.0 0.00 0.00 0.00 86 1020.8
20260508052505 46 45 3.0 6.0 0.00 0.00 0.00 86 1020.8
20260508052315 46 22 2.0 7.0 0.00 0.00 0.00 87 1020.7
20260508052135 46 22 3.0 7.0 0.00 0.00 0.00 87 1020.8
20260508051950 46 45 3.0 6.0 0.00 0.00 0.00 86 1020.7
20260508051809 46 45 2.0 5.0 0.00 0.00 0.00 87 1020.8
20260508051615 46 45 2.0 4.0 0.00 0.00 0.00 87 1020.6
20260508051415 46 338 2.0 4.0 0.00 0.00 0.00 87 1020.6
20260508051228 46 45 2.0 4.0 0.00 0.00 0.00 87 1020.6
20260508051032 46 68 2.0 3.0 0.00 0.00 0.00 88 1020.5
20260508050956 46 68 2.0 3.0 0.00 0.00 0.00 88 1020.6
20260508050855 46 68 2.0 4.0 0.00 0.00 0.00 87 1020.6
20260508050715 46 68 3.0 4.0 0.00 0.00 0.00 88 1020.6
20260508050529 46 68 3.0 5.0 0.00 0.00 0.00 88 1020.5
20260508050335 46 22 4.0 5.0 0.00 0.00 0.00 88 1020.5
20260508050135 46 292 3.0 5.0 0.00 0.00 0.00 88 1020.4
20260508045939 46 90 3.0 8.0 0.00 0.00 0.00 88 1020.5
20260508045745 46 22 3.0 8.0 0.00 0.00 0.00 88 1020.5
20260508045550 46 22 3.0 8.0 0.00 0.00 0.00 88 1020.5
20260508045355 46 22 3.0 5.0 0.00 0.00 0.00 89 1020.5
20260508045220 45 22 3.0 5.0 0.00 0.00 0.00 88 1020.4
20260508045131 45 22 4.0 5.0 0.00 0.00 0.00 88 1020.4
20260508045039 45 0 3.0 5.0 0.00 0.00 0.00 89 1020.5
20260508044845 45 338 3.0 8.0 0.00 0.00 0.00 89 1020.4
20260508044709 45 22 3.0 8.0 0.00 0.00 0.00 89 1020.4
20260508044518 45 22 4.0 8.0 0.00 0.00 0.00 89 1020.4
20260508044330 45 22 3.0 8.0 0.00 0.00 0.00 89 1020.4
20260508044137 45 68 3.0 6.0 0.00 0.00 0.00 89 1020.3
20260508043947 45 45 3.0 5.0 0.00 0.00 0.00 89 1020.3
20260508043810 45 45 3.0 7.0 0.00 0.00 0.00 89 1020.3
20260508043625 45 68 3.0 7.0 0.00 0.00 0.00 89 1020.3
20260508043438 45 45 2.0 7.0 0.00 0.00 0.00 89 1020.4
20260508043255 45 45 2.0 7.0 0.00 0.00 0.00 90 1020.4
20260508043241 45 22 2.0 7.0 0.00 0.00 0.00 90 1020.4
20260508043106 45 22 2.0 4.0 0.00 0.00 0.00 90 1020.4
20260508042930 45 45 2.0 5.0 0.00 0.00 0.00 90 1020.3
20260508042750 45 45 2.0 5.0 0.00 0.00 0.00 90 1020.4
20260508042610 45 45 2.0 5.0 0.00 0.00 0.00 90 1020.4
20260508042410 45 22 2.0 5.0 0.00 0.00 0.00 90 1020.4
20260508042209 45 68 1.0 4.0 0.00 0.00 0.00 90 1020.4
20260508042025 45 22 1.0 4.0 0.00 0.00 0.00 90 1020.4
20260508041845 45 22 1.0 4.0 0.00 0.00 0.00 90 1020.4
20260508041705 45 22 1.0 4.0 0.00 0.00 0.00 90 1020.4
20260508041601 45 22 2.0 4.0 0.00 0.00 0.00 90 1020.4
20260508041510 45 22 2.0 4.0 0.00 0.00 0.00 90 1020.3
20260508041330 45 22 2.0 4.0 0.00 0.00 0.00 90 1020.3
20260508041139 45 22 2.0 5.0 0.00 0.00 0.00 90 1020.3
20260508041000 45 22 2.0 5.0 0.00 0.00 0.00 90 1020.4
20260508040810 45 22 2.0 5.0 0.00 0.00 0.00 90 1020.3
20260508040630 45 22 2.0 5.0 0.00 0.00 0.00 90 1020.4
20260508040438 45 22 2.0 5.0 0.00 0.00 0.00 90 1020.3
20260508040253 45 22 2.0 4.0 0.00 0.00 0.00 90 1020.3
20260508040055 45 68 2.0 4.0 0.00 0.00 0.00 90 1020.3
20260508040036 45 22 2.0 4.0 0.00 0.00 0.00 90 1020.4
20260508035912 45 22 2.0 4.0 0.00 0.00 0.00 90 1020.3
20260508035733 45 22 2.0 4.0 0.00 0.00 0.00 90 1020.4
20260508035553 45 22 2.0 4.0 0.00 0.00 0.00 90 1020.3
20260508035359 45 22 1.0 3.0 0.00 0.00 0.00 90 1020.3
20260508035218 45 45 1.0 3.0 0.00 0.00 0.00 90 1020.3
20260508035025 45 45 1.0 2.0 0.00 0.00 0.00 90 1020.3
20260508034825 45 45 1.0 2.0 0.00 0.00 0.00 90 1020.2
20260508034627 45 45 1.0 2.0 0.00 0.00 0.00 90 1020.2
20260508034445 45 45 1.0 4.0 0.00 0.00 0.00 90 1020.1
20260508034246 45 22 2.0 4.0 0.00 0.00 0.00 90 1020.2
20260508034115 45 22 1.0 4.0 0.00 0.00 0.00 90 1020.1
20260508033915 45 68 1.0 2.0 0.00 0.00 0.00 90 1020.1
20260508033720 45 68 1.0 5.0 0.00 0.00 0.00 90 1020.1
20260508033530 45 68 2.0 5.0 0.00 0.00 0.00 90 1020.1
20260508033349 45 68 2.0 5.0 0.00 0.00 0.00 90 1020.0
20260508033209 45 22 2.0 5.0 0.00 0.00 0.00 90 1020.0
20260508033018 45 45 2.0 5.0 0.00 0.00 0.00 90 1020.0
20260508032825 45 22 2.0 5.0 0.00 0.00 0.00 90 1020.0
20260508032648 45 45 2.0 5.0 0.00 0.00 0.00 90 1020.1
20260508032524 45 68 2.0 5.0 0.00 0.00 0.00 90 1020.1
20260508032505 45 68 2.0 5.0 0.00 0.00 0.00 90 1020.1
20260508032315 45 45 2.0 5.0 0.00 0.00 0.00 90 1020.1
20260508032125 45 45 2.0 5.0 0.00 0.00 0.00 90 1020.1
20260508031930 45 45 1.0 5.0 0.00 0.00 0.00 91 1020.1
20260508031735 45 45 1.0 5.0 0.00 0.00 0.00 91 1020.1
20260508031545 45 22 1.0 5.0 0.00 0.00 0.00 91 1020.1
20260508031353 45 22 1.0 5.0 0.00 0.00 0.00 91 1020.1
20260508031209 45 22 1.0 5.0 0.00 0.00 0.00 91 1020.0
20260508031014 45 22 1.0 5.0 0.00 0.00 0.00 91 1020.0
20260508030830 45 45 1.0 5.0 0.00 0.00 0.00 91 1020.1
20260508030741 45 45 1.0 5.0 0.00 0.00 0.00 91 1020.1
20260508030646 45 45 1.0 5.0 0.00 0.00 0.00 91 1020.1
20260508030500 45 22 0.0 0.0 0.00 0.00 0.00 91 1020.1
20260508030310 45 22 0.0 2.0 0.00 0.00 0.00 91 1020.0
20260508030110 45 22 1.0 2.0 0.00 0.00 0.00 91 1020.0
20260508025930 44 22 1.0 2.0 0.00 0.00 0.00 91 1020.0
20260508025745 44 68 1.0 2.0 0.00 0.00 0.00 92 1020.0
20260508025545 44 68 1.0 3.0 0.00 0.00 0.00 92 1020.1
20260508025355 44 68 1.0 5.0 0.00 0.00 0.00 92 1020.1
20260508025215 44 22 1.0 3.0 0.00 0.00 0.00 92 1020.0
20260508025055 44 22 1.0 5.0 0.00 0.00 0.00 92 1020.0
20260508025030 44 22 1.0 5.0 0.00 0.00 0.00 92 1020.0
20260508024850 44 22 0.0 5.0 0.00 0.00 0.00 92 1020.1
20260508024705 44 22 0.0 5.0 0.00 0.00 0.00 92 1020.0
20260508024510 44 0 0.0 0.0 0.00 0.00 0.00 92 1020.0
20260508024331 44 0 0.0 0.0 0.00 0.00 0.00 92 1020.0
20260508024137 44 0 0.0 0.0 0.00 0.00 0.00 92 1020.0
20260508023955 44 0 0.0 0.0 0.00 0.00 0.00 93 1020.0
20260508023757 44 0 0.0 0.0 0.00 0.00 0.00 92 1019.9
20260508023609 44 0 0.0 0.0 0.00 0.00 0.00 93 1019.9
20260508023420 44 0 0.0 0.0 0.00 0.00 0.00 93 1020.0
20260508023316 44 0 0.0 0.0 0.00 0.00 0.00 93 1020.0
20260508023225 44 0 0.0 0.0 0.00 0.00 0.00 93 1019.9
20260508023040 44 0 0.0 0.0 0.00 0.00 0.00 93 1019.9
20260508022858 44 0 0.0 0.0 0.00 0.00 0.00 93 1019.9
20260508022717 44 0 0.0 0.0 0.00 0.00 0.00 93 1020.0
20260508022523 44 0 0.0 0.0 0.00 0.00 0.00 93 1019.9
20260508022344 44 0 0.0 0.0 0.00 0.00 0.00 93 1019.9
20260508022155 44 0 0.0 0.0 0.00 0.00 0.00 94 1019.9
20260508022015 44 0 0.0 0.0 0.00 0.00 0.00 94 1019.9
20260508021815 44 0 0.0 0.0 0.00 0.00 0.00 94 1019.9
20260508021630 44 0 0.0 0.0 0.00 0.00 0.00 94 1019.9
20260508021435 44 0 0.0 0.0 0.00 0.00 0.00 94 1019.9
20260508021244 44 0 0.0 0.0 0.00 0.00 0.00 94 1019.9
20260508021059 44 0 0.0 0.0 0.00 0.00 0.00 94 1019.9
20260508020905 44 0 0.0 0.0 0.00 0.00 0.00 94 1019.9
20260508020710 44 0 0.0 0.0 0.00 0.00 0.00 94 1020.0
20260508020530 44 0 0.0 0.0 0.00 0.00 0.00 94 1019.9
20260508020339 44 0 0.0 1.0 0.00 0.00 0.00 94 1020.0
20260508020155 44 0 0.0 2.0 0.00 0.00 0.00 94 1020.0
20260508020000 44 22 0.0 2.0 0.00 0.00 0.00 94 1020.0
20260508015826 44 22 0.0 2.0 0.00 0.00 0.00 94 1020.0
20260508015805 44 22 0.0 2.0 0.00 0.00 0.00 94 1020.0
20260508015605 44 22 0.0 2.0 0.00 0.00 0.00 94 1020.0
20260508015420 44 22 0.0 2.0 0.00 0.00 0.00 94 1020.0
20260508015234 44 22 0.0 2.0 0.00 0.00 0.00 94 1020.0
20260508015055 44 22 1.0 2.0 0.00 0.00 0.00 94 1020.0
20260508014915 44 22 0.0 2.0 0.00 0.00 0.00 94 1019.9
20260508014725 44 22 0.0 2.0 0.00 0.00 0.00 94 1020.0
20260508014539 44 22 0.0 2.0 0.00 0.00 0.00 94 1019.9
20260508014347 44 22 0.0 2.0 0.00 0.00 0.00 94 1020.0
20260508014158 44 22 0.0 2.0 0.00 0.00 0.00 94 1019.9
20260508014054 44 22 0.0 2.0 0.00 0.00 0.00 94 1020.0
20260508014005 44 0 0.0 0.0 0.00 0.00 0.00 94 1019.9
20260508013805 44 0 0.0 0.0 0.00 0.00 0.00 94 1019.9
20260508013610 44 0 0.0 0.0 0.00 0.00 0.00 94 1019.9
20260508013415 44 0 0.0 0.0 0.00 0.00 0.00 94 1019.9
20260508013230 44 0 0.0 0.0 0.00 0.00 0.00 94 1019.9
20260508013030 44 0 0.0 0.0 0.00 0.00 0.00 94 1019.8
20260508012849 44 0 0.0 0.0 0.00 0.00 0.00 94 1019.9
20260508012655 44 0 0.0 1.0 0.00 0.00 0.00 94 1019.8
20260508012513 44 0 0.0 1.0 0.00 0.00 0.00 94 1019.8
20260508012321 44 0 0.0 1.0 0.00 0.00 0.00 94 1019.8
20260508012140 44 0 0.0 1.0 0.00 0.00 0.00 94 1019.7
20260508011947 44 0 0.0 0.0 0.00 0.00 0.00 94 1019.9
20260508011803 44 0 0.0 0.0 0.00 0.00 0.00 94 1019.8
20260508011622 44 22 0.0 0.0 0.00 0.00 0.00 94 1019.8
20260508011439 44 22 0.0 0.0 0.00 0.00 0.00 94 1019.8
20260508011255 44 22 0.0 2.0 0.00 0.00 0.00 94 1019.8
20260508011110 44 22 0.0 3.0 0.00 0.00 0.00 94 1019.7
20260508010923 44 22 0.0 3.0 0.00 0.00 0.00 94 1019.8
20260508010725 44 0 0.0 0.0 0.00 0.00 0.00 94 1019.7
20260508010545 44 0 0.0 0.0 0.00 0.00 0.00 94 1019.7
20260508010345 44 0 0.0 0.0 0.00 0.00 0.00 93 1019.7
20260508010149 44 0 0.0 0.0 0.00 0.00 0.00 93 1019.7
20260508005950 44 0 0.0 0.0 0.00 0.00 0.00 93 1019.7
20260508005805 44 22 0.0 2.0 0.00 0.00 0.00 93 1019.6
20260508005615 44 22 0.0 2.0 0.00 0.00 0.00 93 1019.7
20260508005435 44 22 0.0 2.0 0.00 0.00 0.00 93 1019.6
20260508005250 44 22 0.0 2.0 0.00 0.00 0.00 93 1019.7
20260508005103 44 22 0.0 2.0 0.00 0.00 0.00 93 1019.6
20260508004925 44 0 0.0 2.0 0.00 0.00 0.00 93 1019.7
20260508004852 44 0 0.0 2.0 0.00 0.00 0.00 93 1019.7
20260508004745 44 0 0.0 0.0 0.00 0.00 0.00 93 1019.7
20260508004605 44 22 0.0 0.0 0.00 0.00 0.00 93 1019.7
20260508004418 44 22 0.0 0.0 0.00 0.00 0.00 93 1019.7
20260508004238 44 22 0.0 0.0 0.00 0.00 0.00 93 1019.7
20260508004055 44 22 0.0 2.0 0.00 0.00 0.00 93 1019.6
20260508003907 44 22 0.0 2.0 0.00 0.00 0.00 93 1019.7
20260508003720 44 22 0.0 2.0 0.00 0.00 0.00 93 1019.8
20260508003525 44 22 0.0 0.0 0.00 0.00 0.00 93 1019.6
20260508003344 44 22 0.0 2.0 0.00 0.00 0.00 93 1019.7
20260508003205 44 22 0.0 2.0 0.00 0.00 0.00 93 1019.6
20260508003010 44 22 0.0 2.0 0.00 0.00 0.00 93 1019.7
20260508002825 44 22 1.0 2.0 0.00 0.00 0.00 93 1019.6
20260508002625 44 22 1.0 1.0 0.00 0.00 0.00 93 1019.7
20260508002429 44 22 1.0 3.0 0.00 0.00 0.00 93 1019.7
20260508002240 44 22 1.0 5.0 0.00 0.00 0.00 93 1019.7
20260508002055 44 22 1.0 5.0 0.00 0.00 0.00 93 1019.7
20260508001915 44 22 1.0 5.0 0.00 0.00 0.00 93 1019.6
20260508001725 44 22 0.0 2.0 0.00 0.00 0.00 93 1019.7
20260508001545 44 22 0.0 2.0 0.00 0.00 0.00 93 1019.6
20260508001346 44 22 0.0 2.0 0.00 0.00 0.00 93 1019.7
20260508001311 44 22 0.0 2.0 0.00 0.00 0.00 93 1019.8
20260508001200 44 22 0.0 0.0 0.00 0.00 0.00 93 1019.7
20260508001019 44 22 0.0 2.0 0.00 0.00 0.00 93 1019.7
20260508000836 44 22 0.0 2.0 0.00 0.00 0.00 93 1019.7
20260508000700 44 22 1.0 2.0 0.00 0.00 0.00 93 1019.7
20260508000515 44 22 1.0 2.0 0.00 0.00 0.00 93 1019.7
20260508000320 44 22 1.0 2.0 0.00 0.00 0.00 94 1019.6
20260508000125 44 22 1.0 2.0 0.00 0.00 0.00 94 1019.7
20260507235925 44 22 1.0 2.0 0.00 0.00 0.00 94 1019.8
20260507235735 44 22 1.0 4.0 0.00 0.00 0.00 94 1019.7
20260507235549 44 22 0.0 4.0 0.00 0.00 0.00 94 1019.7
20260507235423 44 22 1.0 4.0 0.00 0.00 0.00 94 1019.7
20260507235355 44 22 1.0 4.0 0.00 0.00 0.00 94 1019.7
20260507235215 44 22 1.0 2.0 0.00 0.00 0.00 94 1019.7
20260507235014 44 22 0.0 3.0 0.00 0.00 0.00 95 1019.7
20260507234825 44 22 1.0 3.0 0.00 0.00 0.00 95 1019.7
20260507234626 44 22 1.0 2.0 0.00 0.00 0.00 95 1019.7
20260507234429 44 22 1.0 3.0 0.00 0.00 0.00 95 1019.7
20260507234245 44 45 1.0 3.0 0.00 0.00 0.00 95 1019.7
20260507234043 44 45 0.0 2.0 0.00 0.00 0.00 95 1019.7
20260507233900 44 45 0.0 2.0 0.00 0.00 0.00 95 1019.7
20260507233725 44 45 0.0 2.0 0.00 0.00 0.00 95 1019.8
20260507233634 44 45 0.0 2.0 0.00 0.00 0.00 95 1019.7
20260507233535 44 45 0.0 2.0 0.00 0.00 0.00 95 1019.7
20260507233352 44 45 0.0 2.0 0.00 0.00 0.00 95 1019.8
20260507233155 44 45 0.0 2.0 0.00 0.00 0.00 95 1019.8
20260507233015 44 0 0.0 1.0 0.00 0.00 0.00 95 1019.8
20260507232829 44 0 0.0 1.0 0.00 0.00 0.00 95 1019.8
20260507232640 44 0 0.0 1.0 0.00 0.00 0.00 94 1019.8
20260507232450 44 0 0.0 1.0 0.00 0.00 0.00 94 1019.7
20260507232306 44 0 0.0 0.0 0.00 0.00 0.00 94 1019.8
20260507232129 44 0 0.0 0.0 0.00 0.00 0.00 94 1019.8
20260507231944 44 0 0.0 0.0 0.00 0.00 0.00 94 1019.8
20260507231835 44 45 0.0 0.0 0.00 0.00 0.00 94 1019.7
20260507231744 44 45 0.0 0.0 0.00 0.00 0.00 94 1019.7
20260507231605 44 45 0.0 2.0 0.00 0.00 0.00 94 1019.8
20260507231410 44 45 0.0 2.0 0.00 0.00 0.00 94 1019.7
20260507231228 44 45 0.0 2.0 0.00 0.00 0.00 94 1019.8
20260507231040 44 45 0.0 2.0 0.00 0.00 0.00 94 1019.8
20260507230855 44 45 0.0 2.0 0.00 0.00 0.00 94 1019.8
20260507230715 44 0 0.0 2.0 0.00 0.00 0.00 94 1019.8
20260507230532 44 0 0.0 2.0 0.00 0.00 0.00 94 1019.7
20260507230340 44 0 0.0 2.0 0.00 0.00 0.00 94 1019.8
20260507230313 44 0 0.0 2.0 0.00 0.00 0.00 94 1019.8
20260507230155 44 0 0.0 0.0 0.00 0.00 0.00 94 1019.7
20260507230015 44 0 0.0 0.0 0.00 0.00 0.00 93 1019.8
20260507225829 45 0 0.0 0.0 0.00 0.00 0.00 93 1019.7
20260507225635 45 0 0.0 0.0 0.00 0.00 0.00 93 1019.7
20260507225443 45 0 0.0 0.0 0.00 0.00 0.00 93 1019.7
20260507225255 45 0 0.0 2.0 0.00 0.00 0.00 93 1019.7
20260507225115 45 45 0.0 2.0 0.00 0.00 0.00 93 1019.7
20260507224912 45 45 0.0 2.0 0.00 0.00 0.00 92 1019.8
20260507224735 45 0 0.0 0.0 0.00 0.00 0.00 92 1019.7
20260507224607 45 0 0.0 1.0 0.00 0.00 0.00 92 1019.8
20260507224548 45 45 0.0 1.0 0.00 0.00 0.00 92 1019.8
20260507224405 45 45 0.0 1.0 0.00 0.00 0.00 92 1019.8
20260507224225 46 45 1.0 0.0 0.00 0.00 0.00 92 1019.8
20260507224035 46 45 1.0 2.0 0.00 0.00 0.00 92 1019.7
20260507223850 46 45 1.0 2.0 0.00 0.00 0.00 91 1019.6
20260507223705 46 45 1.0 2.0 0.00 0.00 0.00 91 1019.7
20260507223505 46 45 1.0 2.0 0.00 0.00 0.00 91 1019.6
20260507223315 46 45 1.0 2.0 0.00 0.00 0.00 91 1019.6
20260507223118 46 45 0.0 2.0 0.00 0.00 0.00 91 1019.6
20260507223043 46 45 0.0 2.0 0.00 0.00 0.00 91 1019.6
20260507222935 46 45 0.0 2.0 0.00 0.00 0.00 91 1019.6
20260507222739 46 45 1.0 2.0 0.00 0.00 0.00 91 1019.6
20260507222549 46 45 1.0 2.0 0.00 0.00 0.00 90 1019.5
20260507222409 46 45 1.0 2.0 0.00 0.00 0.00 90 1019.5
20260507222229 46 45 1.0 2.0 0.00 0.00 0.00 90 1019.5
20260507222048 47 45 1.0 2.0 0.00 0.00 0.00 89 1019.6
20260507221900 47 45 1.0 2.0 0.00 0.00 0.00 89 1019.6
20260507221720 47 45 1.0 2.0 0.00 0.00 0.00 89 1019.6
20260507221545 47 45 1.0 2.0 0.00 0.00 0.00 89 1019.6
20260507221352 47 45 1.0 2.0 0.00 0.00 0.00 89 1019.6
20260507221209 47 45 1.0 2.0 0.00 0.00 0.00 89 1019.5
20260507221025 47 45 1.0 2.0 0.00 0.00 0.00 89 1019.5
20260507220840 47 45 1.0 2.0 0.00 0.00 0.00 89 1019.5
20260507220700 47 45 1.0 2.0 0.00 0.00 0.00 89 1019.5
20260507220515 47 45 1.0 2.0 0.00 0.00 0.00 89 1019.5
20260507220325 47 45 1.0 2.0 0.00 0.00 0.00 89 1019.4
20260507220125 47 45 1.0 3.0 0.00 0.00 0.00 89 1019.5
20260507215932 47 45 1.0 3.0 0.00 0.00 0.00 89 1019.4
20260507215815 47 45 0.0 3.0 0.00 0.00 0.00 89 1019.5
20260507215745 47 45 0.0 3.0 0.00 0.00 0.00 89 1019.5
20260507215600 47 45 0.0 1.0 0.00 0.00 0.00 89 1019.4
20260507215405 47 45 0.0 2.0 0.00 0.00 0.00 89 1019.5
20260507215210 47 45 1.0 2.0 0.00 0.00 0.00 89 1019.4
20260507215025 47 45 1.0 2.0 0.00 0.00 0.00 88 1019.5
20260507214840 47 45 1.0 3.0 0.00 0.00 0.00 88 1019.4
20260507214655 47 45 1.0 3.0 0.00 0.00 0.00 88 1019.4
20260507214505 47 45 1.0 3.0 0.00 0.00 0.00 88 1019.3
20260507214320 48 45 1.0 3.0 0.00 0.00 0.00 88 1019.3
20260507214126 47 45 1.0 3.0 0.00 0.00 0.00 88 1019.3
20260507213940 47 45 1.0 3.0 0.00 0.00 0.00 88 1019.3
20260507213745 47 45 1.0 2.0 0.00 0.00 0.00 88 1019.4
20260507213600 47 45 1.0 2.0 0.00 0.00 0.00 88 1019.3
20260507213406 47 45 1.0 3.0 0.00 0.00 0.00 88 1019.4
20260507213218 47 45 1.0 4.0 0.00 0.00 0.00 88 1019.4
20260507213032 47 45 1.0 4.0 0.00 0.00 0.00 88 1019.3
20260507212849 47 68 1.0 3.0 0.00 0.00 0.00 89 1019.3
20260507212655 47 22 1.0 2.0 0.00 0.00 0.00 90 1019.4
20260507212455 47 22 1.0 2.0 0.00 0.00 0.00 91 1019.3
20260507212300 47 45 1.0 2.0 0.00 0.00 0.00 92 1019.3
20260507212252 47 0 0.0 2.0 0.00 0.00 0.00 92 1019.4
20260507212115 47 338 0.0 2.0 0.00 0.00 0.00 93 1019.3
20260507211925 47 270 0.0 2.0 0.00 0.00 0.00 93 1019.3
20260507211735 47 270 0.0 2.0 0.00 0.00 0.00 93 1019.3
20260507211549 47 270 0.0 2.0 0.00 0.00 0.00 94 1019.4
20260507211355 47 0 0.0 1.0 0.00 0.00 0.00 93 1019.3
20260507211209 47 0 0.0 1.0 0.00 0.00 0.00 93 1019.3
20260507211028 47 0 0.0 1.0 0.00 0.00 0.00 93 1019.4
20260507210830 47 0 0.0 0.0 0.00 0.00 0.00 93 1019.3
20260507210645 47 0 0.0 1.0 0.00 0.00 0.00 93 1019.3
20260507210502 48 0 0.0 1.0 0.00 0.00 0.00 93 1019.3
20260507210320 48 0 0.0 1.0 0.00 0.00 0.00 93 1019.3
20260507210125 48 0 0.0 0.0 0.00 0.00 0.00 93 1019.2
20260507205945 48 0 0.0 0.0 0.00 0.00 0.00 93 1019.3
20260507205804 48 0 0.0 0.0 0.00 0.00 0.00 93 1019.2
20260507205618 48 0 0.0 0.0 0.00 0.00 0.00 92 1019.3
20260507205429 48 270 0.0 0.0 0.00 0.00 0.00 92 1019.3
20260507205240 48 270 0.0 0.0 0.00 0.00 0.00 92 1019.3
20260507205055 48 270 0.0 0.0 0.00 0.00 0.00 92 1019.3
20260507204936 48 270 0.0 2.0 0.00 0.00 0.00 92 1019.2
20260507204901 48 270 0.0 2.0 0.00 0.00 0.00 92 1019.2
20260507204705 48 270 0.0 2.0 0.00 0.00 0.00 92 1019.2
20260507204507 48 0 0.0 1.0 0.00 0.00 0.00 92 1019.3
20260507204320 48 0 0.0 0.0 0.00 0.00 0.00 92 1019.3
20260507204125 48 0 0.0 0.0 0.00 0.00 0.00 91 1019.2
20260507203929 48 0 0.0 0.0 0.00 0.00 0.00 91 1019.1
20260507203729 48 0 0.0 0.0 0.00 0.00 0.00 91 1019.1
20260507203549 48 0 0.0 0.0 0.00 0.00 0.00 91 1019.1
20260507203408 48 0 0.0 0.0 0.00 0.00 0.00 91 1019.1
20260507203215 48 0 0.0 0.0 0.00 0.00 0.00 91 1019.0
20260507203103 48 0 0.0 0.0 0.00 0.00 0.00 90 1019.0
20260507203025 48 0 0.0 0.0 0.00 0.00 0.00 90 1019.1
20260507202835 49 0 0.0 0.0 0.00 0.00 0.00 90 1019.0
20260507202655 49 0 0.0 0.0 0.00 0.00 0.00 90 1019.0
20260507202500 49 0 0.0 0.0 0.00 0.00 0.00 90 1018.9
20260507202312 49 0 0.0 0.0 0.00 0.00 0.00 89 1018.9
20260507202135 49 0 0.0 0.0 0.00 0.00 0.00 89 1018.9
20260507201955 49 248 0.0 0.0 0.00 0.00 0.00 89 1018.8
20260507201758 49 248 0.0 0.0 0.00 0.00 0.00 89 1018.9
20260507201618 49 248 1.0 0.0 0.00 0.00 0.00 89 1018.8
20260507201435 49 248 1.0 3.0 0.00 0.00 0.00 89 1018.8
20260507201232 49 248 1.0 3.0 0.00 0.00 0.00 89 1018.8
20260507201048 49 248 2.0 3.0 0.00 0.00 0.00 89 1018.8
20260507200900 49 248 1.0 2.0 0.00 0.00 0.00 89 1018.7
20260507200710 49 248 2.0 6.0 0.00 0.00 0.00 88 1018.8
20260507200515 49 248 2.0 6.0 0.00 0.00 0.00 89 1018.8
20260507200321 49 248 1.0 6.0 0.00 0.00 0.00 88 1018.8
20260507200128 49 270 1.0 3.0 0.00 0.00 0.00 88 1018.8
20260507195948 49 270 1.0 2.0 0.00 0.00 0.00 89 1018.8
20260507195755 49 270 1.0 2.0 0.00 0.00 0.00 89 1018.8
20260507195652 49 270 0.0 2.0 0.00 0.00 0.00 89 1018.7
20260507195618 49 270 0.0 2.0 0.00 0.00 0.00 89 1018.7
20260507195433 49 270 0.0 2.0 0.00 0.00 0.00 89 1018.7
20260507195245 49 270 1.0 2.0 0.00 0.00 0.00 89 1018.7
20260507195048 49 270 0.0 2.0 0.00 0.00 0.00 89 1018.6
20260507194901 49 270 1.0 2.0 0.00 0.00 0.00 89 1018.6
20260507194709 49 270 1.0 2.0 0.00 0.00 0.00 89 1018.7
20260507194534 49 270 1.0 2.0 0.00 0.00 0.00 89 1018.6
20260507194345 49 270 0.0 2.0 0.00 0.00 0.00 89 1018.6
20260507194148 49 270 0.0 2.0 0.00 0.00 0.00 89 1018.6
20260507194005 49 270 0.0 2.0 0.00 0.00 0.00 89 1018.6
20260507193926 49 270 0.0 2.0 0.00 0.00 0.00 89 1018.6
20260507193808 49 270 0.0 2.0 0.00 0.00 0.00 89 1018.5
20260507193621 49 270 0.0 0.0 0.00 0.00 0.00 89 1018.5
20260507193440 49 270 0.0 0.0 0.00 0.00 0.00 88 1018.5
20260507193248 49 270 0.0 1.0 0.00 0.00 0.00 88 1018.5
20260507193108 49 270 0.0 2.0 0.00 0.00 0.00 88 1018.4
20260507192929 49 270 1.0 2.0 0.00 0.00 0.00 88 1018.5
20260507192745 49 270 1.0 2.0 0.00 0.00 0.00 88 1018.4
20260507192605 49 270 1.0 2.0 0.00 0.00 0.00 88 1018.4
20260507192419 49 270 1.0 2.0 0.00 0.00 0.00 87 1018.3
20260507192242 49 270 1.0 3.0 0.00 0.00 0.00 87 1018.3
20260507192105 49 270 2.0 3.0 0.00 0.00 0.00 87 1018.3
20260507191918 49 270 2.0 3.0 0.00 0.00 0.00 87 1018.3
20260507191727 49 270 2.0 3.0 0.00 0.00 0.00 87 1018.3
20260507191545 49 270 2.0 3.0 0.00 0.00 0.00 87 1018.3
20260507191345 49 270 2.0 4.0 0.00 0.00 0.00 87 1018.2
20260507191205 49 270 2.0 5.0 0.00 0.00 0.00 87 1018.2
20260507191014 49 270 2.0 5.0 0.00 0.00 0.00 87 1018.3
20260507190830 49 248 2.0 5.0 0.00 0.00 0.00 87 1018.2
20260507190635 49 292 2.0 3.0 0.00 0.00 0.00 87 1018.1
20260507190449 50 248 2.0 3.0 0.00 0.00 0.00 87 1018.2
20260507190422 50 248 2.0 3.0 0.00 0.00 0.00 87 1018.1
20260507190255 50 248 3.0 5.0 0.00 0.00 0.00 87 1018.1
20260507190105 50 248 3.0 5.0 0.00 0.00 0.00 87 1018.1
20260507185919 50 270 3.0 5.0 0.00 0.00 0.00 87 1018.1
20260507185729 50 248 2.0 5.0 0.00 0.00 0.00 87 1018.1
20260507185545 50 270 2.0 5.0 0.00 0.00 0.00 87 1018.0
20260507185344 50 225 2.0 5.0 0.00 0.00 0.00 87 1018.1
20260507185155 50 202 1.0 4.0 0.00 0.00 0.00 87 1018.1
20260507185009 50 292 1.0 2.0 0.00 0.00 0.00 87 1018.0
20260507184812 50 248 1.0 2.0 0.00 0.00 0.00 87 1018.0
20260507184625 50 248 1.0 3.0 0.00 0.00 0.00 87 1018.0
20260507184435 50 248 1.0 3.0 0.00 0.00 0.00 87 1017.9
20260507184248 50 248 1.0 3.0 0.00 0.00 0.00 87 1017.9
20260507184109 50 248 1.0 3.0 0.00 0.00 0.00 87 1017.9
20260507183918 50 248 1.0 3.0 0.00 0.00 0.00 87 1017.9
20260507183730 50 248 2.0 3.0 0.00 0.00 0.00 87 1017.9
20260507183535 50 248 2.0 3.0 0.00 0.00 0.00 87 1017.7
20260507183342 50 248 2.0 4.0 0.00 0.00 0.00 86 1017.8
20260507183206 50 248 2.0 4.0 0.00 0.00 0.00 86 1017.8
20260507183200 50 248 2.0 6.0 0.00 0.00 0.00 86 1017.8
20260507183019 50 248 2.0 6.0 0.00 0.00 0.00 86 1017.9
20260507182820 50 248 2.0 6.0 0.00 0.00 0.00 86 1017.8
20260507182622 50 248 2.0 6.0 0.00 0.00 0.00 86 1017.8
20260507182429 50 248 2.0 3.0 0.00 0.00 0.00 87 1017.8
20260507182235 50 270 2.0 3.0 0.00 0.00 0.00 86 1017.9
20260507182040 50 270 2.0 4.0 0.00 0.00 0.00 86 1017.9
20260507181849 50 270 2.0 3.0 0.00 0.00 0.00 86 1017.8
20260507181700 50 292 2.0 3.0 0.00 0.00 0.00 86 1017.8
20260507181500 50 292 2.0 4.0 0.00 0.00 0.00 86 1017.8
20260507181321 50 270 2.0 4.0 0.00 0.00 0.00 86 1017.7
20260507181300 50 270 2.0 4.0 0.00 0.00 0.00 86 1017.7
20260507181118 50 270 2.0 5.0 0.00 0.00 0.00 86 1017.8
20260507180935 50 225 2.0 5.0 0.00 0.00 0.00 86 1017.8
20260507180749 50 225 2.0 5.0 0.00 0.00 0.00 86 1017.7
20260507180609 50 225 2.0 5.0 0.00 0.00 0.00 86 1017.7
20260507180415 51 202 2.0 4.0 0.00 0.00 0.00 85 1017.8
20260507180225 51 248 3.0 4.0 0.00 0.00 0.00 85 1017.8
20260507180048 51 248 3.0 5.0 0.00 0.00 0.00 85 1017.7
20260507175900 51 248 3.0 5.0 0.00 0.00 0.00 85 1017.8
20260507175708 51 202 3.0 5.0 0.00 0.00 0.00 84 1017.8
20260507175525 51 225 3.0 6.0 0.00 0.00 0.00 84 1017.7
20260507175432 51 225 2.0 6.0 0.00 0.00 0.00 84 1017.7
20260507175349 51 225 2.0 6.0 0.00 0.00 0.00 84 1017.7
20260507175155 52 248 1.0 6.0 0.00 0.00 0.00 84 1017.7
20260507175005 52 292 1.0 5.0 0.00 0.00 0.00 83 1017.7
20260507174809 52 248 1.0 5.0 0.00 0.00 0.00 84 1017.6
20260507174630 52 202 0.0 2.0 0.00 0.00 0.00 83 1017.7
20260507174435 52 0 0.0 0.0 0.00 0.00 0.00 83 1017.6
20260507174249 52 0 0.0 0.0 0.00 0.00 0.00 82 1017.6
20260507174100 52 0 0.0 0.0 0.00 0.00 0.00 82 1017.5
20260507173909 52 0 0.0 0.0 0.00 0.00 0.00 81 1017.6
20260507173805 52 0 0.0 0.0 0.00 0.00 0.00 81 1017.6
20260507173716 52 0 0.0 0.0 0.00 0.00 0.00 81 1017.6
20260507173519 52 0 0.0 0.0 0.00 0.00 0.00 81 1017.5
20260507173344 52 0 0.0 0.0 0.00 0.00 0.00 81 1017.6
20260507173200 52 0 0.0 0.0 0.00 0.00 0.00 80 1017.5
20260507173000 52 0 0.0 0.0 0.00 0.00 0.00 80 1017.5
20260507172815 52 0 0.0 0.0 0.00 0.00 0.00 80 1017.5
20260507172623 52 0 0.0 0.0 0.00 0.00 0.00 81 1017.4
20260507172446 52 0 0.0 0.0 0.00 0.00 0.00 80 1017.4
20260507172310 52 0 0.0 0.0 0.00 0.00 0.00 80 1017.4
20260507172215 52 0 0.0 0.0 0.00 0.00 0.00 80 1017.4
20260507172115 52 0 0.0 0.0 0.00 0.00 0.00 80 1017.3
20260507171919 52 0 0.0 0.0 0.00 0.00 0.00 80 1017.4
20260507171725 52 0 0.0 0.0 0.00 0.00 0.00 79 1017.3
20260507171525 52 0 0.0 0.0 0.00 0.00 0.00 78 1017.3
20260507171345 52 0 0.0 0.0 0.00 0.00 0.00 77 1017.2
20260507171155 52 0 0.0 0.0 0.00 0.00 0.00 79 1017.2
20260507170955 52 0 0.0 0.0 0.00 0.00 0.00 78 1017.1
20260507170818 52 0 0.0 0.0 0.00 0.00 0.00 78 1017.2
20260507170640 52 90 0.0 0.0 0.00 0.00 0.00 78 1017.2
20260507170439 52 90 1.0 2.0 0.00 0.00 0.00 78 1017.2
20260507170402 52 90 1.0 2.0 0.00 0.00 0.00 78 1017.3
20260507170249 52 90 1.0 3.0 0.00 0.00 0.00 78 1017.2
20260507170100 52 90 1.0 4.0 0.00 0.00 0.00 78 1017.2
20260507165918 52 90 2.0 4.0 0.00 0.00 0.00 78 1017.2
20260507165740 52 90 2.0 4.0 0.00 0.00 0.00 77 1017.2
20260507165550 52 68 2.0 3.0 0.00 0.00 0.00 78 1017.1
20260507165407 52 68 2.0 2.0 0.00 0.00 0.00 77 1017.2
20260507165208 52 68 2.0 6.0 0.00 0.00 0.00 78 1017.2
20260507165018 52 68 2.0 6.0 0.00 0.00 0.00 77 1017.2
20260507164855 52 68 2.0 6.0 0.00 0.00 0.00 77 1017.2
20260507164825 52 68 2.0 6.0 0.00 0.00 0.00 77 1017.1
20260507164645 52 68 2.0 4.0 0.00 0.00 0.00 77 1017.2
20260507164505 52 68 2.0 4.0 0.00 0.00 0.00 77 1017.1
20260507164320 52 68 2.0 4.0 0.00 0.00 0.00 77 1017.2
20260507164139 52 68 2.0 4.0 0.00 0.00 0.00 77 1017.1
20260507164000 52 68 2.0 3.0 0.00 0.00 0.00 77 1017.1
20260507163810 52 68 2.0 5.0 0.00 0.00 0.00 76 1017.0
20260507163620 52 68 2.0 5.0 0.00 0.00 0.00 77 1017.1
20260507163441 52 68 2.0 5.0 0.00 0.00 0.00 77 1017.1
20260507163306 52 68 2.0 5.0 0.00 0.00 0.00 76 1017.1
20260507163256 52 68 2.0 5.0 0.00 0.00 0.00 76 1017.1
20260507163105 52 68 2.0 3.0 0.00 0.00 0.00 77 1017.1
20260507162920 52 68 2.0 3.0 0.00 0.00 0.00 77 1017.1
20260507162725 52 68 2.0 5.0 0.00 0.00 0.00 78 1017.1
20260507162524 53 68 2.0 5.0 0.00 0.00 0.00 77 1017.1
20260507162344 53 68 2.0 5.0 0.00 0.00 0.00 77 1017.1
20260507162205 53 68 2.0 2.0 0.00 0.00 0.00 77 1017.1
20260507162025 53 68 2.0 2.0 0.00 0.00 0.00 77 1017.0
20260507161847 53 68 2.0 5.0 0.00 0.00 0.00 77 1017.0
20260507161755 53 68 2.0 5.0 0.00 0.00 0.00 77 1017.0
20260507161705 53 68 2.0 5.0 0.00 0.00 0.00 77 1017.1
20260507161515 53 68 3.0 5.0 0.00 0.00 0.00 77 1017.1
20260507161325 53 68 3.0 5.0 0.00 0.00 0.00 76 1017.0
20260507161143 53 90 2.0 4.0 0.00 0.00 0.00 76 1017.1
20260507160955 53 68 2.0 3.0 0.00 0.00 0.00 77 1017.0
20260507160809 53 68 2.0 4.0 0.00 0.00 0.00 77 1017.0
20260507160629 53 68 2.0 5.0 0.00 0.00 0.00 76 1017.0
20260507160440 53 68 2.0 5.0 0.00 0.00 0.00 76 1017.1
20260507160240 53 68 2.0 5.0 0.00 0.00 0.00 76 1017.0
20260507160106 53 68 2.0 6.0 0.00 0.00 0.00 76 1017.0
20260507160045 53 68 2.0 6.0 0.00 0.00 0.00 76 1017.0
20260507155844 53 68 2.0 6.0 0.00 0.00 0.00 76 1017.0
20260507155655 53 68 2.0 6.0 0.00 0.00 0.00 76 1017.1
20260507155509 53 68 2.0 5.0 0.00 0.00 0.00 77 1017.0
20260507155309 53 90 2.0 3.0 0.00 0.00 0.00 77 1017.0
20260507155109 53 90 2.0 5.0 0.00 0.00 0.00 77 1016.9
20260507154922 53 90 2.0 6.0 0.00 0.00 0.00 77 1017.0
20260507154740 53 90 2.0 6.0 0.00 0.00 0.00 77 1016.9
20260507154600 53 68 2.0 5.0 0.00 0.00 0.00 76 1017.0
20260507154457 53 68 2.0 5.0 0.00 0.00 0.00 76 1017.0
20260507154415 53 90 2.0 5.0 0.00 0.00 0.00 76 1016.9
20260507154230 53 90 2.0 5.0 0.00 0.00 0.00 76 1016.9
20260507154028 53 90 3.0 4.0 0.00 0.00 0.00 75 1016.9
20260507153840 53 90 2.0 5.0 0.00 0.00 0.00 76 1016.8